Regional Weather Roundup
Issued by NWS Goodland, KS

Home | Current Version | Previous Version | Graphics & Text | Print | Product List | Glossary Off
Versions: 1 2 3 4 5 6 7 8 9 10 11 12 13 14 15 16 17 18 19 20 21 22 23 24 25 26 27 28 29 30 31 32 33 34 35 36 37 38 39 40 41 42 43 44 45 46 47 48 49 50

000
ASUS43 KGLD 280508
RWRGLD

GOODLAND FORECAST AREA HOURLY WEATHER ROUNDUP
NATIONAL WEATHER SERVICE GOODLAND KS
1100 PM MDT THU AUG 27 2015

...OFFICIAL OBSERVATIONS...

CITY           SKY/WX    TMP DP  RH WIND       PRES   REMARKS
GOODLAND KS    PTCLDY    71  60  68 NW14      30.01R
HILL CITY KS   LGT RAIN  77  64  64 SW12      29.87S
IMPERIAL NEB   CLEAR     68  60  75 NW13      29.99S
MCCOOK NEB     PTCLDY    74  65  73 N9        29.91R
AKRON CO       CLEAR     63  59  87 W8        30.12R
BURLINGTON CO  MOCLDY    69  56  62 NW9       30.08S
LIMON CO       PTCLDY    59  57  93 W10       30.17S
$$

...UNOFFICIAL OBSERVATIONS...

CITY           SKY/WX    TMP DP  RH WIND       PRES   REMARKS
COLBY KS       PTCLDY    75  64  69 NW12      29.97R
GOVE KS          N/A     76  32  20 MISG        N/A
LENORA KS        N/A     78  32  18 MISG        N/A
NORTON KS      PTCLDY    75  64  69 NW6       29.88R
SHARON SPRINGS   N/A     72  61  68 NW9         N/A
TRENTON NEB      N/A     71  32  23 NW13        N/A
KIT CARSON CO    N/A     70  58  66 MISG        N/A
YUMA CO          N/A     63  59  87 W5          N/A
$$



USA.gov is the U.S. government's official web portal to all federal, state and local government web resources and services.